This is the latest recevied weather packets stored in our database for station/object W4FXD. If no packets are shown the sender has not sent any weather packets the latest 10 day(s).
| Time | Temp. | Humidity | Pressure | Rain* | Wind** | Luminosity | Snow |
|---|---|---|---|---|---|---|---|
| 1777819028 | 13.33° C | 52% | 1022.1 hPa | 0 mm | - | 726 W/m² | - |
| 1777818726 | 12.78° C | 52% | 1021.9 hPa | 0 mm | - | 733 W/m² | - |
| 1777818422 | 12.78° C | 50% | 1021.6 hPa | 0 mm | - | 712 W/m² | - |
| 1777818119 | 12.78° C | 53% | 1021.6 hPa | 0 mm | - | 692 W/m² | - |
| 1777817816 | 12.78° C | 52% | 1022 hPa | 0 mm | - | 645 W/m² | - |
| 1777817513 | 12.78° C | 50% | 1021.9 hPa | 0 mm | - | 595 W/m² | - |
| 1777817209 | 12.78° C | 50% | 1022 hPa | 0 mm | - | 621 W/m² | - |
| 1777816907 | 12.22° C | 51% | 1022 hPa | 0 mm | - | 564 W/m² | - |
| 1777816604 | 12.22° C | 52% | 1022 hPa | 0 mm | - | 500 W/m² | - |
| 1777816301 | 12.22° C | 54% | 1022 hPa | 0 mm | - | 400 W/m² | - |
| 1777815998 | 11.67° C | 64% | 1022 hPa | 0 mm | - | 423 W/m² | - |
| 1777815695 | 11.67° C | 61% | 1021.9 hPa | 0 mm | - | 406 W/m² | - |
| 1777815393 | 10.56° C | 60% | 1022.1 hPa | 0 mm | - | 392 W/m² | - |
| 1777815090 | 11.11° C | 63% | 1022 hPa | 0 mm | - | 378 W/m² | - |
| 1777814786 | 11.67° C | 62% | 1021.9 hPa | 0 mm | - | 358 W/m² | - |
| 1777814483 | 11.67° C | 60% | 1022 hPa | 0 mm | - | 340 W/m² | - |
| 1777814180 | 11.11° C | 65% | 1022.1 hPa | 0 mm | - | 328 W/m² | - |
| 1777813877 | 11.11° C | 65% | 1022.1 hPa | 0 mm | - | 293 W/m² | - |
| 1777813574 | 10.56° C | 66% | 1022.1 hPa | 0 mm | - | 275 W/m² | - |
| 1777813272 | 10.56° C | 67% | 1022.2 hPa | 0 mm | - | 275 W/m² | - |
| 1777812969 | 10.56° C | 66% | 1022.2 hPa | 0 mm | - | 260 W/m² | - |
| 1777812666 | 10° C | 69% | 1022.2 hPa | 0 mm | - | 246 W/m² | - |
| 1777812363 | 10° C | 70% | 1022.3 hPa | 0 mm | - | 226 W/m² | - |
| 1777812061 | 10° C | 71% | 1022.3 hPa | 0 mm | - | 211 W/m² | - |
| 1777811760 | 9.44° C | 68% | 1022.4 hPa | 0 mm | - | 200 W/m² | - |
* Rain latest hour (hover to see other rain measurements)
** Current wind speed in m/s (hover to see current wind gust speed)